SCP
0 0 0 0 0 0 0 0 0 0 0 0 0 0 0 0 0 0 0 0 0 0 0 0 0 0 0 0 0 0 0 0 0 0 0 0 0 0 0 0 0 0 0
0 0 0 0 0 0 0 0 0 0 0 0 0 0 0 0 0 0 0 0 0 0 0 0 0 0 0 0 0 0 0 0 0 0 0 0 0 0 0 0 0 0 0
0 0 0 0 0 0 0 0 0 0 0 0 0 0 0 0 0 0 0 0 0 0 0 0 0 0 0 0 -0 0 0 0 0 0 0 0 0 0 0 0 0 0 0
-0 0 0 0 0 0 0 0 0 0 0 0 0 0 0 0 0 0 0 0 0 0 0 0 0 0 0 0 -0 0 0 0 0 0 -0 0 0 0 0 0 0 0 0
0 0 0 0 0 0 0 0 0 0 0 0 0 0 0 0 0 0 0 0 0 0 0 0 0 0 0 0 0 0 0 0 0 0 0 0 0 0 0 0 0 0 0
0 0 0 0 0 0 0 0 0 0 0 0 0 0 0 0 0 0 0 0 0 0 0 0 0 0 0 0 0 0 0 0 0 0 0 0 0 0 0 0 0 0 0
-0 0 0 0 0 0 0 0 0 0 0 0 0 0 0 0 0 0 0 0 0 0 -0 0 0 0 0 0 0 0 0 0 0 0 0 -0 -0 -0 -0 -0 0 0 0
-0 0 0 0 0 0 0 0 0 0 0 0 0 0 0 0 0 0 0 0 0 0 0 0 0 0 0 0 0 0 0 0 0 0 0 -0 -0 -0 -0 -0 0 0 0
-0 0 0 0 0 0 0 0 0 0 0 0 0 0 0 0 0 0 0 0 0 0 0 0 0 0 0 0 0 0 0 0 0 0 0 0 0 0 0 0 0 0 0
0 0 0 0 0 0 0 0 0 0 0 0 0 0 0 0 0 0 0 0 0 0 0 0 0 0 0 0 0 0 0 0 0 0 0 0 0 0 0 0 0 0 0
0 0 0 0 0 0 0 0 0 0 0 0 0 0 0 0 0 0 0 0 0 0 0 0 0 0 0 0 0 0 0 0 0 0 0 0 0 0 0 0 0 0 0
0 -0 -0 0 0 0 0 0 0 0 0 0 0 0 0 0 0 0 0 0 0 0 0 0 0 0 0 0 0 0 0 0 0 0 0 0 0 0 0 0 0 0 0
0 0 0 0 0 0 0 0 0 0 0 0 0 0 0 0 0 0 0 0 0 0 0 0 0 0 0 0 -0 0 0 0 0 0 0 0 0 0 0 0 0 0 0
0 0 0 0 0 0 0 0 0 0 0 0 0 0 0 0 0 0 0 0 0 0 0 0 0 0 0 0 -0 -0 -0 -0 -0 0 0 0 0 0 0 0 0 0 0
0 0 0 0 0 0 0 0 0 0 0 0 0 0 0 0 0 0 0 0 0 0 0 0 0 0 0 -0 -0 -0 -0 -0 -0 -0 0 0 0 0 0 0 0 0 0
0 0 0 0 0 0 0 0 0 0 0 0 0 0 0 0 0 0 0 0 0 0 0 0 0 0 0 -0 -0 0 0 0 0 0 0 0 0 0 0 0 0 0 0
0 0 0 0 0 0 0 0 0 0 0 0 0 0 0 0 0 0 0 0 0 0 0 0 0 0 0 0 0 0 0 0 0 0 0 0 0 0 0 0 0 0 0
0 0 0 0 0 0 0 0 0 0 0 0 0 0 0 0 0 0 0 0 0 0 0 0 0 0 0 0 0 0 0 0 0 0 0 0 0 0 0 0 0 0 0
-0 0 0 0 0 0 0 0 0 0 0 0 0 0 0 0 0 0 0 0 0 0 0 0 0 0 0 0 0 0 0 0 0 0 0 0 0 0 0 0 0 0 0
0 0 0 0 0 0 0 0 0 0 0 0 0 0 0 0 0 0 0 0 0 0 0 0 0 0 0 0 0 0 0 0 0 0 0 0 0 0 0 0 0 0 0
0 0 0 0 0 0 0 0 0 0 0 0 0 0 0 0 0 0 0 0 0 0 0 0 0 0 0 0 0 0 0 0 0 0 0 0 0 0 0 0 0 0 0
0 0 0 0 0 0 0 0 0 0 0 0 0 0 0 0 0 0 0 -0 -0 -0 -0 0 0 0 0 0 0 0 0 0 0 0 0 0 0 0 0 0 0 0 0
0 0 0 0 0 0 0 0 0 0 0 0 0 0 0 0 0 0 -0 -0 -0 0 0 0 0 0 0 0 0 0 0 0 0 0 0 0 0 0 0 0 0 0 0
0 0 0 0 0 0 0 0 0 0 0 0 0 0 0 0 -0 -0 -0 0 0 0 0 0 0 0 0 0 0 0 0 0 0 0 0 0 0 0 0 0 0 0 0
0 0 0 0 0 0 0 0 0 0 0 0 0 0 0 0 0 0 0 0 0 0 0 0 0 0 0 0 0 0 0 0 0 0 0 0 0 0 0 0 0 0 0
0 0 0 0 0 0 0 0 0 0 0 0 0 0 0 -0 0 0 0 -0 0 0 0 0 0 0 0 0 0 0 0 0 0 0 0 0 0 0 0 0 0 0 0
Wind_Speed_500mb
44 44 40 31 24 26 25 24 21 14 7 7 11 14 19 21 24 28 33 38 34 29 30 29 28 28 26 27 26 26 24 32 26 29 41 45 42 31 32 29 27 21 20
44 57 50 35 26 28 31 29 22 15 6 5 10 13 16 20 24 30 28 20 25 30 28 26 25 26 27 27 29 18 22 27 30 6 15 15 28 43 46 35 18 20 21
69 63 53 42 34 38 36 32 23 13 2 10 14 15 19 21 19 12 22 28 29 26 24 22 25 25 27 33 35 31 20 25 38 42 16 11 14 11 28 41 31 18 14
65 65 55 45 40 40 38 31 23 12 2 9 12 13 11 5 11 25 32 28 27 27 27 26 26 25 25 30 39 37 32 23 34 40 38 36 33 20 11 29 34 23 16
72 74 59 40 36 39 37 31 22 11 3 11 14 10 6 14 24 29 28 27 29 31 31 27 21 25 23 30 29 38 39 36 32 30 26 26 32 36 37 30 33 29 26
69 67 47 40 38 39 38 32 23 13 4 11 11 8 14 21 24 27 28 27 27 24 29 29 28 39 33 33 35 37 40 37 38 37 35 38 41 39 36 34 32 29 15
73 71 63 56 49 46 42 33 24 15 3 9 7 8 15 20 23 25 23 20 21 19 21 28 23 20 26 26 29 31 32 33 34 33 35 36 38 38 38 37 34 35 34
77 76 69 57 53 46 39 33 26 16 4 7 2 9 16 14 14 14 11 15 13 14 14 13 18 14 17 17 12 21 24 25 28 27 27 30 32 35 38 36 34 34 32
82 80 72 64 54 46 39 34 27 17 8 3 3 13 16 14 11 10 8 7 8 8 9 7 9 15 15 15 13 20 19 18 19 18 17 21 30 35 36 34 31 28 22
80 82 77 71 58 48 41 37 25 14 10 1 7 14 16 13 15 22 22 22 7 6 4 5 6 12 16 11 9 9 19 16 20 21 24 24 33 41 43 44 44 36 31
86 88 84 72 61 56 47 41 31 23 15 4 11 15 16 16 18 18 14 14 20 5 6 5 12 14 20 12 7 5 10 24 26 24 22 21 27 31 40 45 45 37 33
85 87 85 74 71 65 56 46 36 27 19 7 14 16 20 21 17 10 5 3 5 14 12 8 12 16 24 18 2 4 7 17 17 18 22 29 32 28 30 37 44 41 33
77 81 81 82 78 72 61 53 42 30 23 11 17 21 24 18 14 9 7 5 4 7 16 9 12 14 24 17 3 5 7 13 19 23 25 30 30 31 29 35 43 46 42
80 85 84 86 80 75 69 57 45 34 28 15 19 23 23 16 14 10 9 7 4 8 12 20 9 11 20 18 7 5 9 16 21 27 31 33 32 34 36 37 38 45 51
78 87 89 87 83 78 73 59 47 39 31 20 22 24 23 18 15 12 11 9 8 11 15 18 11 7 11 13 11 10 12 16 19 22 28 35 30 38 43 39 41 48 53
78 83 86 88 86 85 77 63 50 40 34 24 25 27 26 22 17 10 15 13 13 17 16 17 14 5 3 5 8 11 15 19 22 24 28 33 37 36 32 35 44 49 54
85 92 95 90 89 87 79 65 51 39 37 25 27 28 26 24 19 18 17 18 17 19 21 19 7 6 7 10 13 19 23 27 29 33 38 41 43 44 41 35 49 54 47
81 87 88 87 89 85 74 61 48 40 37 28 24 28 30 25 22 18 16 17 20 17 12 5 7 10 14 21 27 31 38 40 42 44 51 50 47 49 47 44 58 42 39
87 88 84 86 91 83 72 59 49 43 38 31 25 31 32 24 22 21 16 18 16 11 6 7 13 21 26 31 37 42 43 48 48 46 47 53 53 44 42 41 42 44 40
73 80 81 84 82 75 65 59 50 43 38 33 32 32 24 21 19 18 17 13 13 11 11 15 20 30 37 29 24 27 24 26 35 38 37 49 47 35 32 33 44 44 44
73 73 74 76 77 68 64 57 46 40 31 28 32 28 22 15 14 11 11 11 8 10 16 23 26 29 28 24 22 22 27 35 46 37 37 31 32 27 27 36 43 40 44
67 69 69 71 66 62 61 51 41 31 34 29 31 24 18 17 16 9 9 9 12 19 23 27 24 24 26 27 26 26 31 35 41 33 27 27 24 30 35 41 42 42 41
66 62 66 67 65 60 52 44 34 38 39 34 30 22 16 22 16 13 11 14 20 24 26 32 37 38 37 33 27 26 31 34 31 26 21 20 32 39 40 38 36 40 50
61 63 65 67 64 55 44 30 37 39 37 38 29 22 20 18 13 13 15 17 22 33 41 39 38 40 31 27 23 27 28 28 21 19 19 28 37 36 39 35 45 48 38
64 66 67 63 59 51 42 36 41 39 36 34 28 28 19 15 12 10 15 27 32 33 25 27 29 25 16 13 23 24 24 21 22 22 28 35 40 40 43 52 47 30 36
70 66 60 56 49 44 35 45 43 41 38 40 33 28 20 16 12 14 17 23 21 16 21 28 29 19 13 16 21 24 18 18 24 27 31 35 38 49 51 43 36 30 36
Wind_Direction_500mb
166 177 183 187 195 192 189 179 172 173 193 270 280 286 286 297 309 319 327 328 343 9 35 32 21 23 16 15 9 26 22 16 139 104 92 83 77 77 78 90 88 78 71
219 193 188 189 189 191 183 183 178 182 208 291 305 305 301 307 317 325 328 11 38 51 45 35 28 21 23 21 22 37 37 32 35 115 114 79 71 59 60 64 82 83 78
195 189 187 184 187 192 188 185 183 191 231 338 337 327 311 319 331 16 61 66 68 62 54 50 51 40 41 40 37 40 63 57 55 54 80 52 33 59 49 50 53 87 79
193 190 189 184 183 191 189 187 190 191 285 357 353 336 317 341 60 78 81 79 81 69 58 49 41 36 49 44 45 51 58 59 63 65 60 57 47 39 15 26 43 52 71
196 189 189 186 188 193 194 192 192 200 287 355 358 8 49 75 91 93 92 88 78 69 49 38 49 56 50 44 52 56 58 55 50 47 41 44 50 46 42 24 28 48 63
193 190 184 188 190 191 199 197 197 205 265 353 357 46 91 97 106 104 106 94 80 62 44 54 67 68 66 62 55 52 53 53 51 49 49 46 44 37 32 27 17 16 40
197 188 190 189 190 192 199 198 200 209 230 350 6 90 121 119 113 117 117 105 85 77 56 47 56 69 69 59 49 42 44 43 40 41 42 33 29 17 11 4 359 347 335
200 195 196 191 191 193 196 196 198 200 215 344 47 139 139 132 122 120 107 98 83 90 69 55 52 36 48 46 52 46 46 37 37 46 29 22 19 3 355 355 352 347 339
199 199 197 197 193 192 199 195 192 199 209 329 144 160 150 140 115 132 128 116 121 103 93 66 12 34 26 24 44 49 41 33 24 28 21 14 22 28 24 18 7 359 346
197 202 201 199 196 197 195 192 202 205 203 224 172 167 154 140 129 107 90 69 98 190 149 50 21 352 334 330 354 4 18 20 26 33 30 56 42 32 27 24 19 7 353
199 202 202 202 199 198 197 197 201 205 203 200 197 179 162 147 137 120 100 81 62 74 208 339 332 349 3 1 297 345 15 41 49 47 39 24 15 14 16 18 13 8 357
198 201 201 201 201 200 200 201 201 205 202 200 197 180 168 156 145 143 117 89 70 26 15 353 357 3 11 16 62 47 25 13 22 16 4 2 357 351 353 0 4 1 350
196 199 202 201 203 202 203 202 204 205 200 202 192 185 168 163 162 184 203 225 262 341 2 355 11 12 20 22 85 18 6 356 360 349 339 330 332 342 335 339 351 346 343
197 201 201 202 203 205 204 202 203 204 204 205 194 193 176 169 173 187 210 245 264 290 329 347 354 25 23 21 25 336 338 326 326 330 337 330 322 322 327 321 329 340 333
194 197 199 202 204 205 203 203 205 202 202 206 200 193 182 183 182 212 221 249 257 290 307 327 336 350 1 12 7 2 354 347 348 343 331 339 329 317 306 305 324 332 327
193 197 203 203 205 205 203 201 203 202 203 203 201 194 187 193 202 222 230 236 252 267 297 310 317 277 339 354 355 349 350 332 326 336 340 338 337 332 322 314 311 323 325
196 202 207 206 208 208 204 202 202 200 200 203 200 203 193 198 214 232 238 249 283 271 275 293 271 253 278 291 303 311 309 319 326 326 325 323 320 329 324 315 310 317 318
200 206 207 209 209 207 202 204 201 199 198 198 205 202 201 209 209 233 253 257 286 267 271 231 252 291 298 301 306 307 306 307 312 313 313 315 312 317 319 322 317 321 316
212 213 211 210 207 202 200 201 197 198 199 198 200 194 191 209 227 238 262 268 275 213 225 282 305 315 320 323 316 313 307 309 321 315 314 317 322 314 318 318 325 322 323
212 211 207 207 204 197 199 197 197 198 201 195 191 182 201 214 231 240 261 262 211 222 271 301 313 318 316 320 319 315 320 329 335 327 310 314 320 323 322 315 325 326 324
209 207 205 204 197 195 194 194 197 203 197 189 187 197 206 235 222 246 227 191 207 270 299 310 320 317 308 314 314 320 322 329 338 328 324 332 329 326 324 316 318 321 323
196 198 198 195 190 192 191 191 198 192 183 188 194 191 219 219 198 188 184 218 266 289 301 314 322 325 308 304 305 309 317 331 337 332 332 342 338 329 320 319 325 327 324
187 192 192 183 183 187 191 191 190 184 182 186 189 200 223 213 216 218 231 252 279 292 303 311 311 313 312 308 292 303 321 334 336 334 337 334 330 332 334 333 341 340 328
184 183 179 176 178 184 188 197 189 183 185 185 186 197 183 189 218 255 267 277 295 308 314 318 316 311 305 293 284 312 327 337 339 340 329 323 335 339 343 342 344 343 349
176 174 176 178 180 182 186 190 183 183 186 184 191 186 196 224 242 265 291 305 310 314 327 334 331 320 322 281 302 323 332 336 341 330 325 337 344 347 343 340 343 346 352
171 172 176 176 178 181 191 183 185 189 191 189 194 193 204 223 260 302 316 328 322 329 324 322 327 336 326 318 331 334 336 337 339 338 348 354 356 346 344 350 353 354 359
Wind_Speed_850mb
44 44 40 31 24 26 25 24 21 14 7 7 11 14 19 21 24 28 33 38 34 29 30 29 28 28 26 27 26 26 24 32 26 29 41 45 42 31 32 29 27 21 20
44 57 50 35 26 28 31 29 22 15 6 5 10 13 16 20 24 30 28 20 25 30 28 26 25 26 27 27 29 18 22 27 30 6 15 15 28 43 46 35 18 20 21
69 63 53 42 34 38 36 32 23 13 2 10 14 15 19 21 19 12 22 28 29 26 24 22 25 25 27 33 35 31 20 25 38 42 16 11 14 11 28 41 31 18 14
65 65 55 45 40 40 38 31 23 12 2 9 12 13 11 5 11 25 32 28 27 27 27 26 26 25 25 30 39 37 32 23 34 40 38 36 33 20 11 29 34 23 16
72 74 59 40 36 39 37 31 22 11 3 11 14 10 6 14 24 29 28 27 29 31 31 27 21 25 23 30 29 38 39 36 32 30 26 26 32 36 37 30 33 29 26
69 67 47 40 38 39 38 32 23 13 4 11 11 8 14 21 24 27 28 27 27 24 29 29 28 39 33 33 35 37 40 37 38 37 35 38 41 39 36 34 32 29 15
73 71 63 56 49 46 42 33 24 15 3 9 7 8 15 20 23 25 23 20 21 19 21 28 23 20 26 26 29 31 32 33 34 33 35 36 38 38 38 37 34 35 34
77 76 69 57 53 46 39 33 26 16 4 7 2 9 16 14 14 14 11 15 13 14 14 13 18 14 17 17 12 21 24 25 28 27 27 30 32 35 38 36 34 34 32
82 80 72 64 54 46 39 34 27 17 8 3 3 13 16 14 11 10 8 7 8 8 9 7 9 15 15 15 13 20 19 18 19 18 17 21 30 35 36 34 31 28 22
80 82 77 71 58 48 41 37 25 14 10 1 7 14 16 13 15 22 22 22 7 6 4 5 6 12 16 11 9 9 19 16 20 21 24 24 33 41 43 44 44 36 31
86 88 84 72 61 56 47 41 31 23 15 4 11 15 16 16 18 18 14 14 20 5 6 5 12 14 20 12 7 5 10 24 26 24 22 21 27 31 40 45 45 37 33
85 87 85 74 71 65 56 46 36 27 19 7 14 16 20 21 17 10 5 3 5 14 12 8 12 16 24 18 2 4 7 17 17 18 22 29 32 28 30 37 44 41 33
77 81 81 82 78 72 61 53 42 30 23 11 17 21 24 18 14 9 7 5 4 7 16 9 12 14 24 17 3 5 7 13 19 23 25 30 30 31 29 35 43 46 42
80 85 84 86 80 75 69 57 45 34 28 15 19 23 23 16 14 10 9 7 4 8 12 20 9 11 20 18 7 5 9 16 21 27 31 33 32 34 36 37 38 45 51
78 87 89 87 83 78 73 59 47 39 31 20 22 24 23 18 15 12 11 9 8 11 15 18 11 7 11 13 11 10 12 16 19 22 28 35 30 38 43 39 41 48 53
78 83 86 88 86 85 77 63 50 40 34 24 25 27 26 22 17 10 15 13 13 17 16 17 14 5 3 5 8 11 15 19 22 24 28 33 37 36 32 35 44 49 54
85 92 95 90 89 87 79 65 51 39 37 25 27 28 26 24 19 18 17 18 17 19 21 19 7 6 7 10 13 19 23 27 29 33 38 41 43 44 41 35 49 54 47
81 87 88 87 89 85 74 61 48 40 37 28 24 28 30 25 22 18 16 17 20 17 12 5 7 10 14 21 27 31 38 40 42 44 51 50 47 49 47 44 58 42 39
87 88 84 86 91 83 72 59 49 43 38 31 25 31 32 24 22 21 16 18 16 11 6 7 13 21 26 31 37 42 43 48 48 46 47 53 53 44 42 41 42 44 40
73 80 81 84 82 75 65 59 50 43 38 33 32 32 24 21 19 18 17 13 13 11 11 15 20 30 37 29 24 27 24 26 35 38 37 49 47 35 32 33 44 44 44
73 73 74 76 77 68 64 57 46 40 31 28 32 28 22 15 14 11 11 11 8 10 16 23 26 29 28 24 22 22 27 35 46 37 37 31 32 27 27 36 43 40 44
67 69 69 71 66 62 61 51 41 31 34 29 31 24 18 17 16 9 9 9 12 19 23 27 24 24 26 27 26 26 31 35 41 33 27 27 24 30 35 41 42 42 41
66 62 66 67 65 60 52 44 34 38 39 34 30 22 16 22 16 13 11 14 20 24 26 32 37 38 37 33 27 26 31 34 31 26 21 20 32 39 40 38 36 40 50
61 63 65 67 64 55 44 30 37 39 37 38 29 22 20 18 13 13 15 17 22 33 41 39 38 40 31 27 23 27 28 28 21 19 19 28 37 36 39 35 45 48 38
64 66 67 63 59 51 42 36 41 39 36 34 28 28 19 15 12 10 15 27 32 33 25 27 29 25 16 13 23 24 24 21 22 22 28 35 40 40 43 52 47 30 36
70 66 60 56 49 44 35 45 43 41 38 40 33 28 20 16 12 14 17 23 21 16 21 28 29 19 13 16 21 24 18 18 24 27 31 35 38 49 51 43 36 30 36
Wind_Direction_850mb
166 177 183 187 195 192 189 179 172 173 193 270 280 286 286 297 309 319 327 328 343 9 35 32 21 23 16 15 9 26 22 16 139 104 92 83 77 77 78 90 88 78 71
219 193 188 189 189 191 183 183 178 182 208 291 305 305 301 307 317 325 328 11 38 51 45 35 28 21 23 21 22 37 37 32 35 115 114 79 71 59 60 64 82 83 78
195 189 187 184 187 192 188 185 183 191 231 338 337 327 311 319 331 16 61 66 68 62 54 50 51 40 41 40 37 40 63 57 55 54 80 52 33 59 49 50 53 87 79
193 190 189 184 183 191 189 187 190 191 285 357 353 336 317 341 60 78 81 79 81 69 58 49 41 36 49 44 45 51 58 59 63 65 60 57 47 39 15 26 43 52 71
196 189 189 186 188 193 194 192 192 200 287 355 358 8 49 75 91 93 92 88 78 69 49 38 49 56 50 44 52 56 58 55 50 47 41 44 50 46 42 24 28 48 63
193 190 184 188 190 191 199 197 197 205 265 353 357 46 91 97 106 104 106 94 80 62 44 54 67 68 66 62 55 52 53 53 51 49 49 46 44 37 32 27 17 16 40
197 188 190 189 190 192 199 198 200 209 230 350 6 90 121 119 113 117 117 105 85 77 56 47 56 69 69 59 49 42 44 43 40 41 42 33 29 17 11 4 359 347 335
200 195 196 191 191 193 196 196 198 200 215 344 47 139 139 132 122 120 107 98 83 90 69 55 52 36 48 46 52 46 46 37 37 46 29 22 19 3 355 355 352 347 339
199 199 197 197 193 192 199 195 192 199 209 329 144 160 150 140 115 132 128 116 121 103 93 66 12 34 26 24 44 49 41 33 24 28 21 14 22 28 24 18 7 359 346
197 202 201 199 196 197 195 192 202 205 203 224 172 167 154 140 129 107 90 69 98 190 149 50 21 352 334 330 354 4 18 20 26 33 30 56 42 32 27 24 19 7 353
199 202 202 202 199 198 197 197 201 205 203 200 197 179 162 147 137 120 100 81 62 74 208 339 332 349 3 1 297 345 15 41 49 47 39 24 15 14 16 18 13 8 357
198 201 201 201 201 200 200 201 201 205 202 200 197 180 168 156 145 143 117 89 70 26 15 353 357 3 11 16 62 47 25 13 22 16 4 2 357 351 353 0 4 1 350
196 199 202 201 203 202 203 202 204 205 200 202 192 185 168 163 162 184 203 225 262 341 2 355 11 12 20 22 85 18 6 356 360 349 339 330 332 342 335 339 351 346 343
197 201 201 202 203 205 204 202 203 204 204 205 194 193 176 169 173 187 210 245 264 290 329 347 354 25 23 21 25 336 338 326 326 330 337 330 322 322 327 321 329 340 333
194 197 199 202 204 205 203 203 205 202 202 206 200 193 182 183 182 212 221 249 257 290 307 327 336 350 1 12 7 2 354 347 348 343 331 339 329 317 306 305 324 332 327
193 197 203 203 205 205 203 201 203 202 203 203 201 194 187 193 202 222 230 236 252 267 297 310 317 277 339 354 355 349 350 332 326 336 340 338 337 332 322 314 311 323 325
196 202 207 206 208 208 204 202 202 200 200 203 200 203 193 198 214 232 238 249 283 271 275 293 271 253 278 291 303 311 309 319 326 326 325 323 320 329 324 315 310 317 318
200 206 207 209 209 207 202 204 201 199 198 198 205 202 201 209 209 233 253 257 286 267 271 231 252 291 298 301 306 307 306 307 312 313 313 315 312 317 319 322 317 321 316
212 213 211 210 207 202 200 201 197 198 199 198 200 194 191 209 227 238 262 268 275 213 225 282 305 315 320 323 316 313 307 309 321 315 314 317 322 314 318 318 325 322 323
212 211 207 207 204 197 199 197 197 198 201 195 191 182 201 214 231 240 261 262 211 222 271 301 313 318 316 320 319 315 320 329 335 327 310 314 320 323 322 315 325 326 324
209 207 205 204 197 195 194 194 197 203 197 189 187 197 206 235 222 246 227 191 207 270 299 310 320 317 308 314 314 320 322 329 338 328 324 332 329 326 324 316 318 321 323
196 198 198 195 190 192 191 191 198 192 183 188 194 191 219 219 198 188 184 218 266 289 301 314 322 325 308 304 305 309 317 331 337 332 332 342 338 329 320 319 325 327 324
187 192 192 183 183 187 191 191 190 184 182 186 189 200 223 213 216 218 231 252 279 292 303 311 311 313 312 308 292 303 321 334 336 334 337 334 330 332 334 333 341 340 328
184 183 179 176 178 184 188 197 189 183 185 185 186 197 183 189 218 255 267 277 295 308 314 318 316 311 305 293 284 312 327 337 339 340 329 323 335 339 343 342 344 343 349
176 174 176 178 180 182 186 190 183 183 186 184 191 186 196 224 242 265 291 305 310 314 327 334 331 320 322 281 302 323 332 336 341 330 325 337 344 347 343 340 343 346 352
171 172 176 176 178 181 191 183 185 189 191 189 194 193 204 223 260 302 316 328 322 329 324 322 327 336 326 318 331 334 336 337 339 338 348 354 356 346 344 350 353 354 359